Miscellaneous Local Product
Issued by NWS Hastings, NE

Home | Current Version | Previous Version | Graphics & Text | Print | Product List | Glossary On
Versions: 1 2 3 4 5 6 7 8 9 10 11 12 13 14 15 16 17 18 19 20 21 22 23 24 25 26 27 28 29 30 31 32 33 34 35 36 37 38 39 40 41 42 43 44 45 46 47 48 49 50
000
AXUS43 KGID 270102
MISGRI

GID CWA HOURLY WEATHER ROUNDUP
NATIONAL WEATHER SERVICE HASTINGS NE
800 PM CDT SUN APR 26 2015

NOTE: "FAIR" INDICATES FEW OR NO CLOUDS BELOW 12,000 FEET WITH NO
SIGNIFICANT WEATHER AND/OR OBSTRUCTIONS TO VISIBILITY.

...SOUTH CENTRAL NEBRASKA...

CITY           SKY/WX    TMP DP  RH WIND       PRES   REMARKS
GRAND ISLAND   CLEAR     55  41  59 E9        30.01R
HASTINGS       PTCLDY    54  42  64 E8        29.99R
KEARNEY        CLOUDY    54  41  62 E10       30.00R
ORD            CLEAR     56  36  47 E10       30.01R
YORK           CLEAR     55  41  58 E8        30.00R
AURORA         CLEAR     55  42  60 E9        30.00R
LEXINGTON      CLOUDY    53  44  70 E8        29.99S
HOLDREGE       CLOUDY    53  42  65 E15       29.98S
HEBRON         CLEAR     58  39  49 E10       29.96S

...NEBRASKA PANHANDLE...

CITY           SKY/WX    TMP DP  RH WIND       PRES   REMARKS
CHADRON        CLOUDY    51  43  74 SE9       30.03R
ALLIANCE       CLOUDY    47  39  74 E9        30.03R
SCOTTSBLUFF    CLOUDY    46  32  58 SE12      30.03R
SIDNEY         LGT RAIN  41  40  96 E12       30.02R VSB 1/2

...WESTERN AND NORTH CENTRAL NEBRASKA...

CITY           SKY/WX    TMP DP  RH WIND       PRES   REMARKS
VALENTINE      MOCLDY    57  35  43 E8        30.04R
AINSWORTH      PTCLDY    57  29  34 E9        30.03S
ONEILL         CLEAR     61  30  31 E8        30.04R
BROKEN BOW     PTCLDY    54  40  59 E7        30.00S
IMPERIAL       CLOUDY    47  42  83 NE9       30.00R
NORTH PLATTE   NOT AVBL
MCCOOK         CLOUDY    52  43  71 NE12      29.98R

...EASTERN NEBRASKA...

CITY           SKY/WX    TMP DP  RH WIND       PRES   REMARKS
NORFOLK        CLEAR     59  33  37 E7        30.03R
SO SIOUX CITY  CLEAR     63  30  28 E6        30.02R
TEKAMAH          N/A     60  35  39 NE8       30.03R
COLUMBUS       CLEAR     57  36  44 E12       30.04R
ALBION         CLEAR     59  32  36 E9        30.02S
OMAHA EPPLEY   PTCLDY    60  35  39 NE10      30.02R
OFFUTT AFB     CLEAR     58  36  43 NE6       30.00R
MILLARD        CLEAR     61  36  39 E3        30.01R
LINCOLN        CLEAR     58  36  43 E12       30.01R
NEBRASKA CITY  CLEAR     58  27  30 NE9       29.99R
BEATRICE       CLEAR     59  38  45 E10       29.97R
FALLS CITY     CLEAR     58  36  43 NE12      29.96R

...NORTHERN KANSAS...

CITY           SKY/WX    TMP DP  RH WIND       PRES   REMARKS
GOODLAND       CLOUDY    45  44  97 E13       29.98R
HILL CITY      CLOUDY    50  42  74 E14       29.98R
NORTON         CLOUDY    54  41  62 NE9       29.97R
PHILLIPSBURG   PTCLDY    55  45  67 NE8       29.98R
SMITH CENTER   MOCLDY    52  43  71 E8        29.98R
HAYS           CLOUDY    48  37  66 E16       29.96R
RUSSELL        CLOUDY    50  44  80 E16G24    29.94R
CONCORDIA      CLOUDY    55  44  66 E7        29.97R
SALINA         CLOUDY    56  44  64 NE8       29.94S
TOPEKA         CLEAR     59  40  49 E9        29.97R



USA.gov is the U.S. government's official web portal to all federal, state and local government web resources and services.